QPF
0.00 0.00 0.00 0.00 0.01 0.04 0.06 0.02 0.00 0.00 0.00 0.00 0.00 0.00 0.00 0.00 0.01 0.01 0.00 0.00 0.00 0.00 0.00 0.00 0.00 0.00 0.00 0.00 0.00 0.00 0.00 0.00 0.00 0.00 0.00 0.00 0.00 0.00 0.00 0.00 0.00 0.00 0.00 0.00 0.00
0.00 0.00 0.00 0.00 0.00 0.01 0.04 0.04 0.01 0.00 0.00 0.00 0.00 0.00 0.00 0.00 0.01 0.00 0.00 0.00 0.00 0.00 0.00 0.00 0.00 0.00 0.00 0.00 0.00 0.00 0.00 0.00 0.00 0.00 0.00 0.00 0.00 0.00 0.00 0.00 0.00 0.00 0.00 0.00 0.00
0.00 0.00 0.00 0.00 0.00 0.00 0.01 0.05 0.03 0.00 0.00 0.00 0.00 0.00 0.00 0.00 0.01 0.00 0.00 0.00 0.00 0.00 0.00 0.00 0.00 0.00 0.00 0.00 0.00 0.00 0.00 0.00 0.00 0.00 0.00 0.00 0.00 0.00 0.00 0.00 0.00 0.00 0.00 0.00 0.00
0.00 0.00 0.00 0.00 0.00 0.00 0.00 0.03 0.06 0.03 0.00 0.00 0.00 0.00 0.00 0.00 0.01 0.01 0.00 0.02 0.04 0.03 0.00 0.00 0.00 0.00 0.00 0.00 0.00 0.00 0.00 0.00 0.00 0.00 0.00 0.00 0.00 0.00 0.00 0.00 0.00 0.00 0.00 0.00 0.00
0.00 0.00 0.00 0.00 0.00 0.00 0.00 0.02 0.06 0.05 0.01 0.00 0.00 0.00 0.00 0.00 0.00 0.00 0.00 0.00 0.02 0.06 0.01 0.00 0.00 0.00 0.00 0.00 0.00 0.00 0.00 0.00 0.00 0.00 0.00 0.00 0.00 0.00 0.00 0.00 0.00 0.00 0.00 0.00 0.00
0.00 0.00 0.00 0.01 0.01 0.00 0.00 0.01 0.05 0.05 0.01 0.00 0.00 0.00 0.00 0.00 0.00 0.00 0.00 0.00 0.00 0.04 0.03 0.00 0.00 0.00 0.00 0.00 0.00 0.00 0.00 0.00 0.00 0.00 0.00 0.00 0.00 0.00 0.00 0.00 0.00 0.00 0.00 0.00 0.00
0.00 0.00 0.00 0.00 0.01 0.01 0.00 0.00 0.02 0.04 0.03 0.00 0.00 0.00 0.00 0.00 0.00 0.00 0.00 0.00 0.00 0.01 0.06 0.01 0.00 0.00 0.00 0.00 0.00 0.00 0.00 0.00 0.00 0.00 0.00 0.00 0.00 0.00 0.00 0.00 0.00 0.00 0.00 0.00 0.00
0.00 0.00 0.00 0.00 0.01 0.03 0.01 0.00 0.01 0.04 0.06 0.02 0.00 0.00 0.00 0.00 0.00 0.00 0.00 0.00 0.00 0.01 0.07 0.06 0.00 0.00 0.00 0.00 0.00 0.00 0.00 0.00 0.00 0.00 0.00 0.00 0.00 0.00 0.00 0.00 0.00 0.00 0.00 0.00 0.00
0.01 0.00 0.01 0.02 0.04 0.03 0.01 0.00 0.00 0.02 0.07 0.06 0.01 0.00 0.00 0.00 0.00 0.00 0.00 0.00 0.00 0.07 0.10 0.03 0.00 0.00 0.00 0.00 0.00 0.00 0.00 0.00 0.00 0.00 0.00 0.00 0.00 0.00 0.00 0.00 0.00 0.00 0.00 0.00 0.00
0.03 0.02 0.05 0.05 0.06 0.04 0.01 0.00 0.00 0.02 0.07 0.04 0.01 0.00 0.00 0.00 0.00 0.00 0.00 0.00 0.00 0.02 0.06 0.01 0.00 0.00 0.00 0.00 0.00 0.00 0.00 0.00 0.00 0.00 0.00 0.00 0.00 0.00 0.00 0.00 0.00 0.00 0.00 0.00 0.00
0.03 0.01 0.02 0.03 0.03 0.01 0.01 0.00 0.01 0.03 0.04 0.01 0.00 0.00 0.00 0.00 0.00 0.00 0.00 0.00 0.00 0.01 0.00 0.00 0.00 0.00 0.00 0.00 0.00 0.00 0.00 0.00 0.00 0.00 0.00 0.00 0.00 0.00 0.00 0.00 0.00 0.00 0.00 0.00 0.00
0.03 0.01 0.03 0.03 0.02 0.02 0.02 0.01 0.00 0.02 0.02 0.01 0.00 0.00 0.00 0.00 0.00 0.00 0.00 0.00 0.00 0.00 0.00 0.00 0.00 0.00 0.00 0.00 0.00 0.00 0.00 0.00 0.00 0.00 0.00 0.00 0.00 0.00 0.00 0.00 0.00 0.00 0.00 0.00 0.00
0.02 0.01 0.04 0.03 0.03 0.02 0.02 0.00 0.00 0.01 0.02 0.01 0.00 0.00 0.00 0.00 0.00 0.00 0.00 0.00 0.00 0.00 0.00 0.00 0.00 0.00 0.00 0.00 0.00 0.00 0.00 0.00 0.00 0.00 0.00 0.00 0.00 0.00 0.00 0.00 0.00 0.00 0.00 0.00 0.00
0.00 0.01 0.03 0.05 0.05 0.04 0.02 0.00 0.00 0.02 0.01 0.01 0.01 0.00 0.00 0.00 0.00 0.00 0.00 0.00 0.00 0.00 0.00 0.00 0.00 0.00 0.00 0.00 0.00 0.00 0.00 0.00 0.00 0.00 0.00 0.00 0.00 0.00 0.00 0.00 0.00 0.00 0.00 0.00 0.00
0.00 0.01 0.01 0.06 0.04 0.03 0.07 0.01 0.01 0.02 0.01 0.00 0.00 0.00 0.00 0.00 0.00 0.00 0.00 0.00 0.00 0.00 0.00 0.00 0.00 0.00 0.00 0.00 0.00 0.00 0.00 0.00 0.00 0.00 0.00 0.00 0.00 0.00 0.00 0.00 0.00 0.00 0.00 0.00 0.00
0.00 0.00 0.01 0.01 0.03 0.06 0.13 0.02 0.01 0.00 0.01 0.00 0.00 0.00 0.01 0.00 0.00 0.00 0.00 0.00 0.00 0.00 0.00 0.00 0.00 0.00 0.00 0.00 0.00 0.00 0.00 0.00 0.00 0.00 0.00 0.00 0.00 0.00 0.00 0.00 0.00 0.00 0.00 0.00 0.00
0.00 0.00 0.00 0.01 0.05 0.09 0.05 0.00 0.00 0.01 0.00 0.01 0.00 0.00 0.00 0.00 0.00 0.00 0.00 0.00 0.00 0.00 0.00 0.00 0.00 0.00 0.00 0.00 0.00 0.00 0.00 0.00 0.00 0.00 0.00 0.00 0.00 0.00 0.00 0.00 0.00 0.00 0.00 0.00 0.00
0.01 0.00 0.02 0.05 0.11 0.06 0.02 0.00 0.01 0.01 0.00 0.00 0.00 0.01 0.00 0.00 0.00 0.00 0.00 0.00 0.00 0.00 0.00 0.00 0.00 0.00 0.00 0.00 0.00 0.00 0.00 0.00 0.00 0.00 0.00 0.00 0.00 0.00 0.00 0.00 0.00 0.00 0.00 0.00 0.00
0.01 0.00 0.05 0.13 0.09 0.01 0.00 0.00 0.01 0.00 0.00 0.00 0.01 0.01 0.02 0.00 0.00 0.00 0.00 0.00 0.00 0.00 0.00 0.00 0.00 0.00 0.00 0.00 0.00 0.00 0.00 0.00 0.00 0.00 0.00 0.00 0.00 0.00 0.00 0.00 0.00 0.00 0.00 0.00 0.00
0.01 0.00 0.05 0.10 0.02 0.00 0.00 0.00 0.00 0.00 0.00 0.00 0.00 0.00 0.01 0.00 0.00 0.00 0.00 0.00 0.00 0.00 0.00 0.00 0.00 0.00 0.00 0.00 0.00 0.00 0.00 0.00 0.00 0.00 0.00 0.00 0.00 0.00 0.00 0.00 0.00 0.00 0.00 0.00 0.00
0.00 0.01 0.06 0.05 0.01 0.00 0.00 0.00 0.00 0.00 0.00 0.00 0.00 0.00 0.00 0.00 0.00 0.00 0.00 0.00 0.00 0.00 0.00 0.00 0.00 0.00 0.00 0.00 0.00 0.00 0.00 0.00 0.00 0.00 0.00 0.00 0.00 0.00 0.00 0.00 0.00 0.00 0.00 0.00 0.00
0.00 0.01 0.04 0.03 0.00 0.00 0.01 0.00 0.00 0.00 0.00 0.00 0.00 0.00 0.00 0.00 0.00 0.00 0.00 0.00 0.00 0.00 0.00 0.00 0.00 0.00 0.00 0.00 0.00 0.00 0.00 0.00 0.00 0.00 0.00 0.00 0.00 0.00 0.00 0.00 0.00 0.00 0.00 0.00 0.00
0.00 0.00 0.00 0.01 0.01 0.00 0.00 0.01 0.00 0.00 0.00 0.00 0.00 0.00 0.00 0.00 0.00 0.00 0.00 0.00 0.00 0.00 0.00 0.00 0.00 0.00 0.00 0.00 0.00 0.00 0.00 0.00 0.00 0.00 0.00 0.00 0.00 0.00 0.00 0.00 0.00 0.00 0.00 0.00 0.00
0.00 0.00 0.00 0.01 0.01 0.00 0.01 0.01 0.00 0.00 0.00 0.00 0.00 0.00 0.00 0.00 0.00 0.00 0.00 0.00 0.00 0.00 0.00 0.00 0.00 0.00 0.00 0.00 0.00 0.00 0.00 0.00 0.00 0.00 0.00 0.00 0.00 0.00 0.00 0.00 0.00 0.00 0.00 0.00 0.00
0.00 0.00 0.00 0.01 0.01 0.01 0.00 0.00 0.00 0.00 0.00 0.00 0.00 0.00 0.00 0.00 0.00 0.00 0.00 0.00 0.00 0.00 0.00 0.00 0.00 0.00 0.00 0.00 0.00 0.00 0.00 0.00 0.00 0.00 0.00 0.00 0.00 0.00 0.00 0.00 0.00 0.00 0.00 0.00 0.00
0.00 0.00 0.00 0.00 0.00 0.00 0.00 0.00 0.00 0.00 0.00 0.00 0.00 0.00 0.00 0.00 0.00 0.00 0.00 0.00 0.00 0.00 0.00 0.00 0.00 0.00 0.00 0.00 0.00 0.00 0.00 0.00 0.00 0.00 0.00 0.00 0.00 0.00 0.00 0.00 0.00 0.00 0.00 0.00 0.00
0.00 0.00 0.00 0.00 0.00 0.00 0.00 0.00 0.00 0.00 0.00 0.00 0.00 0.00 0.00 0.00 0.00 0.00 0.00 0.00 0.00 0.00 0.00 0.00 0.00 0.00 0.00 0.00 0.00 0.00 0.00 0.00 0.00 0.00 0.00 0.00 0.00 0.00 0.00 0.00 0.00 0.00 0.00 0.00 0.00
MSLP
1015.34 1014.91 1014.50 1014.11 1013.47 1013.14 1012.66 1012.35 1012.30 1012.30 1012.43 1012.61 1012.54 1012.58 1012.57 1012.35 1012.06 1011.70 1011.14 1010.36 1010.55 1010.58 1010.71 1010.44 1010.40 1010.31 1010.34 1009.97 1009.62 1009.35 1009.35 1008.55 1008.03 1007.20 1006.18 1005.29 1004.77 1004.58 1004.93 1005.60 1005.37 1005.37 1005.57 1006.40 1006.53
1015.04 1014.56 1014.19 1013.87 1013.53 1013.05 1012.62 1012.18 1011.82 1011.94 1012.16 1012.33 1012.30 1012.33 1012.29 1012.26 1011.86 1010.78 1010.17 1009.97 1010.13 1010.27 1010.69 1010.34 1010.06 1010.15 1010.24 1009.91 1009.62 1009.32 1009.02 1008.09 1007.59 1006.95 1006.34 1005.63 1005.07 1005.15 1005.52 1005.87 1006.09 1005.91 1005.99 1006.46 1006.81
1014.91 1014.47 1014.05 1013.70 1013.30 1012.84 1012.55 1012.15 1011.64 1011.51 1011.76 1011.92 1012.05 1012.07 1012.13 1012.20 1011.31 1009.26 1009.09 1009.54 1009.91 1010.17 1010.63 1010.25 1009.69 1009.82 1010.09 1009.71 1009.42 1009.22 1008.62 1008.01 1007.32 1006.81 1006.48 1006.41 1006.04 1005.66 1005.94 1006.05 1006.14 1006.04 1006.00 1006.30 1006.67
1014.76 1014.41 1013.90 1013.62 1013.23 1012.79 1012.36 1011.90 1011.45 1011.21 1011.38 1011.48 1011.70 1011.81 1011.97 1011.88 1010.41 1008.82 1008.11 1008.84 1009.51 1010.06 1010.38 1009.86 1009.89 1009.71 1009.85 1009.57 1009.22 1008.95 1008.50 1008.21 1007.52 1006.98 1007.13 1007.20 1007.03 1006.69 1006.61 1006.58 1006.37 1006.12 1006.07 1006.30 1006.42
1014.46 1014.05 1013.73 1013.32 1013.09 1012.58 1012.09 1011.81 1011.22 1010.84 1010.86 1011.13 1011.26 1011.57 1011.83 1011.03 1009.27 1008.95 1008.86 1009.37 1009.65 1010.10 1010.00 1009.67 1009.66 1009.71 1009.64 1009.29 1009.00 1008.70 1008.80 1008.14 1007.71 1007.41 1007.69 1007.73 1007.80 1007.81 1007.34 1007.09 1006.75 1006.24 1006.21 1006.44 1006.55
1014.12 1013.66 1013.35 1013.10 1012.74 1012.33 1011.87 1011.52 1011.17 1010.63 1010.21 1010.63 1010.85 1011.34 1011.30 1009.78 1008.12 1008.56 1008.68 1009.01 1009.17 1009.47 1009.65 1009.53 1009.43 1009.45 1009.39 1009.08 1008.78 1008.72 1008.70 1008.51 1008.20 1007.75 1008.14 1008.21 1008.13 1008.36 1007.88 1007.31 1006.95 1006.82 1006.48 1006.35 1006.40
1013.83 1013.43 1013.02 1012.68 1012.40 1012.07 1011.56 1011.11 1010.97 1010.42 1009.84 1010.13 1010.54 1010.98 1010.31 1008.73 1008.27 1008.43 1008.74 1008.72 1008.71 1008.81 1009.33 1009.39 1009.54 1009.78 1009.37 1009.26 1009.02 1009.16 1009.53 1009.15 1008.71 1008.18 1008.10 1008.32 1008.01 1007.65 1007.67 1007.27 1007.03 1006.76 1006.50 1006.38 1006.19
1013.59 1013.11 1012.65 1012.32 1012.10 1011.77 1011.42 1010.96 1010.44 1010.31 1009.74 1009.63 1010.29 1010.53 1009.34 1008.14 1008.39 1008.75 1008.61 1008.54 1008.68 1008.72 1009.06 1009.50 1009.85 1010.16 1010.10 1010.29 1009.96 1010.09 1009.98 1009.47 1007.86 1007.44 1007.58 1008.37 1007.16 1007.23 1006.58 1006.57 1006.54 1006.37 1006.15 1005.92 1005.65
1013.25 1012.91 1012.39 1012.04 1011.79 1011.48 1011.17 1010.71 1010.34 1009.86 1009.65 1009.60 1010.35 1010.09 1008.77 1008.49 1008.34 1008.30 1008.39 1008.20 1008.59 1008.90 1009.39 1009.92 1010.08 1010.47 1010.81 1010.67 1010.65 1010.09 1009.81 1008.88 1007.96 1007.13 1007.23 1007.69 1007.23 1006.81 1006.39 1006.03 1006.02 1005.65 1005.51 1005.27 1005.11
1012.89 1012.50 1012.01 1011.73 1011.41 1011.27 1010.96 1010.33 1009.42 1009.24 1008.97 1009.66 1009.59 1010.02 1008.31 1007.43 1007.51 1007.87 1008.26 1008.09 1008.59 1009.37 1010.31 1010.69 1010.77 1011.03 1011.01 1010.82 1010.22 1009.79 1009.51 1008.94 1008.15 1007.58 1007.60 1007.82 1007.40 1007.03 1006.59 1006.33 1005.92 1005.70 1005.17 1004.85 1004.69
1012.52 1012.16 1011.53 1011.50 1011.26 1010.93 1010.79 1010.32 1009.47 1009.35 1008.20 1007.98 1008.05 1007.11 1006.26 1006.82 1007.49 1007.84 1008.18 1008.37 1008.69 1009.44 1010.06 1010.40 1010.75 1010.49 1010.26 1010.26 1010.06 1009.61 1009.45 1009.07 1008.41 1007.89 1007.93 1007.88 1007.37 1006.93 1006.37 1005.76 1005.23 1005.09 1004.94 1004.57 1004.39
1012.25 1011.77 1011.13 1011.16 1010.79 1010.74 1010.72 1010.38 1010.01 1010.42 1008.43 1007.85 1007.58 1006.90 1006.96 1006.97 1007.37 1008.06 1007.97 1008.60 1009.00 1009.60 1009.98 1010.89 1010.39 1010.03 1010.01 1009.80 1009.90 1009.74 1009.87 1009.79 1009.33 1008.99 1008.97 1008.57 1007.13 1006.75 1005.80 1004.47 1004.26 1004.27 1004.12 1003.82 1003.80
1011.85 1011.20 1010.80 1010.56 1010.08 1009.88 1009.83 1009.54 1009.90 1010.76 1009.50 1008.00 1007.20 1006.84 1007.06 1007.06 1007.00 1007.70 1008.12 1008.40 1009.11 1009.81 1010.23 1010.34 1010.08 1009.99 1010.01 1009.99 1010.29 1010.43 1010.47 1010.48 1010.43 1010.17 1009.91 1009.27 1006.56 1004.93 1003.46 1003.03 1002.83 1002.97 1003.09 1003.12 1003.00
1011.32 1010.88 1010.47 1010.03 1009.61 1009.04 1008.34 1007.96 1009.73 1010.69 1009.85 1007.64 1006.68 1006.41 1007.01 1006.80 1007.34 1007.89 1008.13 1008.56 1009.29 1009.85 1010.45 1010.60 1010.14 1010.13 1010.14 1010.31 1010.55 1010.71 1010.63 1010.83 1011.17 1011.35 1011.28 1010.56 1008.50 1005.28 1003.52 1002.70 1002.18 1001.93 1002.00 1002.16 1002.48
1010.97 1010.47 1009.95 1009.74 1009.34 1008.75 1008.16 1008.78 1009.88 1011.20 1008.96 1007.11 1006.62 1006.06 1006.82 1006.89 1007.34 1008.27 1008.45 1008.72 1008.99 1009.53 1010.40 1010.23 1010.00 1010.27 1010.49 1010.41 1010.66 1011.15 1011.41 1011.89 1012.32 1012.56 1012.44 1011.45 1010.68 1004.16 1003.02 1002.34 1002.00 1001.69 1001.39 1001.46 1001.85
1010.57 1009.98 1009.23 1008.57 1008.25 1008.06 1008.32 1008.95 1009.67 1011.14 1007.55 1006.72 1006.56 1006.33 1007.12 1007.32 1007.52 1008.37 1008.85 1009.18 1009.18 1009.70 1010.10 1010.16 1010.35 1010.42 1010.47 1010.90 1011.22 1011.88 1012.11 1012.62 1013.14 1013.51 1012.86 1010.68 1009.61 1003.50 1002.58 1001.87 1001.59 1001.25 1001.09 1000.91 1001.15
1010.23 1009.34 1008.45 1007.80 1007.59 1007.71 1008.26 1008.59 1010.05 1009.24 1007.13 1006.94 1006.33 1006.86 1007.30 1007.69 1008.29 1008.80 1009.22 1009.68 1009.58 1010.48 1010.64 1010.66 1010.59 1010.66 1010.94 1011.31 1011.71 1012.20 1012.93 1013.39 1014.00 1013.83 1012.08 1009.00 1008.75 1004.19 1002.17 1001.26 1001.25 1001.08 1001.09 1001.00 1000.91
1009.64 1008.55 1007.71 1007.45 1007.58 1008.05 1008.48 1008.64 1008.37 1006.81 1006.28 1006.23 1006.56 1007.49 1007.66 1008.00 1008.73 1009.21 1009.70 1009.95 1009.98 1010.00 1010.05 1010.50 1010.27 1010.43 1011.10 1011.22 1011.63 1012.30 1013.05 1013.61 1013.64 1012.98 1011.29 1009.45 1006.30 1003.25 1001.58 1000.90 1000.63 1000.65 1000.71 1000.76 1000.89
1009.18 1008.45 1007.91 1007.75 1007.96 1008.25 1008.78 1007.96 1007.02 1005.57 1005.45 1005.69 1006.95 1007.38 1007.81 1008.07 1008.34 1009.15 1009.61 1009.80 1009.78 1009.90 1009.83 1009.97 1010.34 1009.96 1010.85 1011.16 1011.61 1012.43 1013.19 1013.62 1013.84 1013.02 1011.75 1008.81 1005.15 1002.58 1001.42 1000.50 1000.15 1000.13 1000.23 1000.27 1000.63
1009.10 1008.92 1008.49 1008.28 1008.30 1008.55 1008.88 1007.68 1006.50 1004.79 1004.89 1005.60 1005.62 1006.18 1006.96 1007.72 1008.00 1008.44 1009.06 1008.87 1009.05 1009.30 1009.41 1009.92 1010.39 1010.73 1010.96 1011.38 1011.73 1012.24 1012.90 1013.90 1014.25 1013.86 1011.59 1007.52 1005.09 1002.75 1001.70 1001.10 1000.69 1000.85 1000.63 1000.46 1000.47
1009.32 1009.18 1009.20 1008.70 1008.77 1008.73 1008.21 1007.34 1006.00 1005.16 1004.95 1004.70 1005.01 1005.46 1006.11 1007.23 1007.60 1008.14 1008.49 1007.95 1008.43 1008.74 1009.42 1010.03 1010.62 1011.96 1012.04 1011.70 1011.63 1012.51 1012.94 1013.28 1013.50 1013.24 1011.75 1008.40 1004.59 1002.00 1001.73 1001.66 1001.45 1001.39 1001.11 1001.09 1001.11
1009.67 1009.74 1009.62 1009.08 1009.28 1008.79 1007.91 1007.53 1006.24 1005.33 1004.67 1004.16 1004.51 1005.03 1005.75 1006.76 1007.30 1007.75 1007.62 1007.83 1007.98 1008.38 1009.18 1010.22 1011.00 1011.86 1011.69 1011.19 1011.35 1011.63 1012.19 1012.87 1013.25 1012.39 1011.31 1009.22 1004.27 1002.47 1002.05 1001.88 1001.77 1001.94 1001.34 1000.98 1001.19
1010.00 1010.39 1010.00 1009.86 1009.23 1008.98 1008.27 1007.40 1006.60 1005.36 1004.81 1004.48 1004.43 1004.73 1005.60 1006.34 1007.08 1007.05 1007.39 1008.19 1008.15 1008.51 1009.34 1010.35 1011.48 1012.12 1011.66 1011.49 1011.30 1011.37 1011.64 1011.88 1012.22 1012.05 1010.52 1009.68 1004.65 1002.34 1002.03 1002.13 1002.09 1001.45 1001.34 1000.85 1001.01
1010.18 1010.28 1009.78 1009.24 1008.54 1008.55 1007.95 1007.51 1006.62 1005.86 1005.33 1004.86 1004.89 1004.92 1005.67 1006.12 1006.11 1006.94 1007.87 1008.55 1008.66 1008.97 1009.55 1010.25 1011.21 1011.89 1011.85 1011.42 1011.62 1011.82 1011.37 1011.32 1011.61 1011.22 1009.64 1007.91 1004.13 1004.17 1003.27 1002.61 1002.45 1002.08 1000.89 1001.06 1001.16
1010.87 1010.78 1010.67 1009.51 1008.37 1007.84 1007.83 1007.80 1006.70 1006.12 1005.87 1005.50 1005.48 1005.31 1005.62 1006.12 1006.74 1007.16 1007.95 1008.85 1009.33 1009.61 1010.07 1010.73 1011.66 1011.97 1011.73 1011.29 1011.11 1010.67 1010.39 1010.32 1010.52 1009.89 1009.35 1007.20 1005.99 1004.05 1003.48 1003.11 1002.55 1001.92 1001.41 1001.19 1001.57
1011.77 1011.77 1010.81 1009.13 1008.07 1007.67 1007.80 1007.80 1006.81 1006.36 1005.90 1005.78 1005.82 1006.13 1006.18 1006.53 1007.10 1007.29 1007.82 1008.39 1008.82 1009.86 1010.47 1011.10 1011.91 1012.04 1011.30 1010.24 1009.94 1009.53 1008.94 1008.67 1008.66 1008.31 1007.72 1006.98 1005.21 1003.91 1002.91 1003.26 1003.31 1003.03 1002.77 1002.54 1002.47
1012.44 1011.97 1011.39 1009.44 1008.25 1007.39 1007.01 1006.73 1006.64 1006.56 1006.86 1006.46 1006.46 1006.64 1007.05 1007.65 1007.75 1007.79 1008.05 1008.47 1008.80 1009.37 1010.23 1011.05 1011.93 1012.14 1011.03 1009.66 1009.14 1008.12 1007.04 1007.22 1007.25 1007.08 1006.77 1006.01 1004.69 1003.54 1002.81 1002.93 1003.18 1003.50 1003.42 1003.50 1003.32
Thickness
5544 5545 5547 5549 5554 5555 5559 5562 5565 5567 5568 5569 5574 5578 5584 5591 5599 5609 5616 5630 5632 5640 5643 5650 5654 5658 5659 5661 5669 5675 5651 5655 5670 5680 5697 5717 5710 5717 5728 5712 5722 5730 5731 5723 5731
5539 5541 5543 5544 5546 5549 5552 5556 5560 5561 5561 5563 5567 5571 5575 5582 5591 5605 5617 5626 5629 5633 5633 5637 5642 5648 5645 5652 5657 5655 5647 5663 5684 5692 5692 5704 5706 5705 5706 5701 5703 5713 5722 5725 5724
5529 5531 5533 5536 5538 5542 5544 5547 5552 5555 5555 5557 5561 5564 5567 5572 5583 5606 5617 5619 5622 5626 5626 5632 5642 5642 5636 5646 5651 5652 5648 5670 5680 5689 5692 5690 5691 5707 5695 5690 5703 5701 5713 5717 5716
5520 5520 5522 5524 5526 5531 5535 5540 5545 5548 5550 5552 5555 5557 5560 5567 5576 5604 5614 5616 5616 5617 5619 5626 5628 5628 5627 5631 5647 5641 5658 5663 5672 5681 5681 5679 5686 5681 5687 5691 5702 5706 5712 5713 5714
5511 5511 5510 5513 5515 5520 5526 5530 5537 5541 5545 5546 5550 5551 5554 5562 5579 5597 5602 5602 5607 5608 5612 5618 5618 5620 5619 5630 5639 5639 5645 5661 5666 5669 5672 5677 5670 5670 5675 5686 5701 5705 5706 5704 5709
5501 5500 5499 5499 5502 5506 5513 5520 5526 5534 5540 5540 5543 5544 5549 5560 5588 5591 5595 5597 5601 5603 5605 5612 5615 5621 5621 5625 5630 5639 5642 5648 5654 5661 5662 5660 5662 5661 5669 5685 5687 5689 5692 5699 5701
5481 5481 5482 5483 5485 5490 5499 5508 5516 5526 5534 5535 5535 5537 5548 5563 5580 5584 5586 5591 5598 5601 5599 5606 5610 5609 5618 5618 5629 5629 5621 5632 5639 5648 5650 5657 5651 5657 5670 5676 5677 5682 5687 5692 5697
5453 5447 5443 5447 5458 5469 5479 5492 5506 5514 5524 5530 5529 5533 5546 5568 5571 5573 5581 5586 5592 5597 5597 5599 5602 5599 5602 5608 5613 5609 5611 5606 5642 5648 5651 5644 5643 5662 5674 5673 5674 5679 5683 5687 5694
5418 5414 5414 5416 5421 5439 5457 5473 5490 5504 5514 5519 5520 5529 5543 5558 5563 5571 5576 5580 5584 5587 5588 5588 5591 5588 5590 5590 5590 5603 5595 5610 5625 5647 5648 5642 5641 5660 5670 5676 5673 5678 5682 5688 5692
5398 5396 5396 5399 5403 5412 5430 5455 5479 5495 5507 5508 5517 5520 5544 5557 5565 5568 5571 5579 5576 5574 5569 5570 5572 5575 5579 5581 5583 5592 5599 5604 5613 5632 5637 5630 5637 5651 5661 5664 5667 5672 5678 5683 5687
5386 5384 5387 5388 5392 5400 5413 5435 5464 5483 5502 5514 5525 5541 5556 5561 5560 5561 5565 5568 5571 5568 5564 5567 5565 5569 5579 5585 5591 5599 5600 5603 5611 5628 5622 5625 5633 5644 5654 5661 5667 5670 5673 5678 5682
5380 5382 5386 5387 5390 5393 5401 5420 5443 5459 5497 5509 5522 5534 5543 5550 5549 5552 5563 5558 5559 5556 5563 5555 5560 5579 5586 5591 5591 5593 5589 5589 5602 5612 5609 5613 5629 5637 5649 5664 5668 5669 5673 5677 5678
5378 5384 5388 5390 5394 5396 5401 5420 5435 5446 5476 5502 5518 5527 5533 5543 5547 5547 5555 5557 5553 5550 5553 5555 5567 5576 5578 5580 5578 5578 5578 5580 5584 5594 5601 5603 5628 5646 5669 5672 5675 5674 5676 5676 5677
5380 5385 5389 5394 5399 5403 5413 5429 5437 5443 5470 5501 5513 5523 5528 5539 5539 5547 5552 5551 5548 5545 5547 5549 5565 5567 5569 5571 5576 5569 5586 5585 5583 5578 5571 5590 5585 5634 5655 5662 5670 5669 5670 5670 5669
5381 5387 5392 5392 5397 5402 5417 5425 5427 5435 5502 5500 5509 5527 5527 5534 5540 5536 5546 5548 5548 5549 5548 5552 5559 5559 5559 5569 5575 5570 5576 5573 5571 5565 5565 5576 5559 5633 5656 5654 5658 5660 5665 5665 5662
5385 5390 5398 5403 5405 5409 5413 5420 5428 5432 5496 5495 5502 5516 5519 5528 5537 5535 5538 5545 5550 5547 5550 5554 5562 5563 5564 5567 5567 5566 5567 5564 5560 5556 5547 5572 5579 5634 5638 5648 5647 5647 5651 5652 5652
5391 5397 5403 5409 5411 5413 5419 5428 5428 5450 5480 5491 5507 5516 5522 5526 5528 5529 5531 5531 5536 5522 5530 5544 5552 5559 5561 5556 5560 5557 5552 5530 5533 5533 5534 5597 5577 5623 5639 5641 5635 5632 5636 5635 5634
5394 5401 5408 5411 5412 5415 5421 5433 5445 5480 5488 5507 5512 5511 5517 5524 5523 5526 5526 5527 5537 5541 5542 5533 5547 5555 5553 5555 5553 5552 5550 5528 5541 5545 5561 5580 5584 5609 5634 5635 5631 5626 5624 5624 5619
5402 5406 5408 5412 5414 5421 5428 5454 5477 5500 5507 5509 5505 5505 5505 5521 5527 5525 5525 5529 5538 5542 5541 5540 5547 5563 5556 5557 5555 5546 5532 5544 5534 5546 5517 5561 5596 5617 5623 5627 5624 5617 5612 5608 5605
5406 5406 5410 5414 5419 5430 5437 5463 5470 5510 5513 5513 5512 5522 5513 5521 5528 5530 5529 5541 5542 5547 5550 5549 5544 5552 5553 5553 5550 5544 5545 5520 5514 5485 5528 5569 5580 5586 5599 5599 5600 5593 5590 5591 5587
5402 5409 5407 5416 5427 5441 5456 5461 5493 5511 5518 5523 5521 5526 5530 5524 5532 5530 5532 5548 5547 5548 5548 5546 5543 5530 5531 5535 5539 5534 5530 5532 5530 5529 5510 5538 5566 5600 5590 5581 5578 5577 5577 5572 5568
5408 5411 5415 5428 5435 5443 5462 5468 5493 5510 5523 5531 5532 5530 5528 5528 5530 5531 5539 5544 5551 5551 5544 5543 5539 5512 5526 5546 5545 5544 5537 5530 5497 5511 5514 5515 5554 5595 5582 5575 5565 5557 5564 5562 5559
5424 5417 5430 5438 5451 5456 5463 5485 5498 5516 5523 5528 5531 5536 5533 5529 5526 5540 5543 5539 5547 5547 5542 5540 5523 5501 5531 5539 5543 5538 5539 5538 5529 5524 5527 5512 5554 5587 5577 5563 5555 5553 5548 5549 5546
5443 5443 5450 5460 5472 5469 5478 5486 5503 5516 5521 5529 5529 5536 5532 5533 5543 5538 5532 5534 5540 5543 5541 5542 5535 5512 5512 5531 5529 5512 5529 5535 5526 5515 5528 5536 5554 5557 5554 5547 5538 5531 5541 5535 5534
5449 5458 5457 5471 5483 5493 5495 5492 5509 5513 5519 5527 5526 5534 5535 5532 5533 5536 5535 5529 5532 5534 5536 5534 5513 5509 5524 5534 5532 5531 5536 5536 5519 5523 5519 5540 5540 5550 5543 5532 5525 5523 5525 5529 5524
5455 5456 5462 5492 5502 5502 5497 5488 5511 5517 5523 5524 5525 5528 5533 5533 5533 5536 5538 5536 5534 5530 5527 5528 5507 5508 5517 5541 5541 5536 5545 5548 5543 5536 5535 5533 5544 5551 5548 5528 5512 5506 5505 5507 5510
5458 5461 5465 5496 5504 5511 5513 5516 5517 5520 5517 5523 5525 5526 5525 5524 5528 5533 5533 5535 5537 5532 5526 5523 5507 5510 5504 5544 5540 5548 5556 5554 5548 5545 5542 5542 5550 5554 5549 5539 5520 5504 5498 5497 5500